time_stamp(utc),avg(mph),gust(mph),direction(deg),12m_air_temp(f),sonic_u(cm/s),sonic_v(cm/s),sonic_w(cm/s),pressure,2m_air_temp(f),pyranometer(W/m^2)
"2019-03-17 00:02:06+00",19.0,21.0,,44.7,-648,556,35,1018.4,44.1,0
"2019-03-17 00:07:06+00",20.5,23.5,,44.7,-735,553,53,1018.5,44,0
"2019-03-17 00:12:06+00",21.8,25.8,,44.5,-774,607,73,1018.56,43.9,0
"2019-03-17 00:17:06+00",21.5,24.5,,44.6,-802,545,66,1018.65,43.9,0
"2019-03-17 00:22:06+00",25.6,28.6,,44.5,-950,641,55,1018.59,43.9,0
"2019-03-17 00:27:06+00",21.8,24.8,,44.4,-821,565,38,1018.64,43.8,0
"2019-03-17 00:32:06+00",21.6,24.6,,44.2,-795,571,51,1018.75,43.6,0
"2019-03-17 00:37:06+00",19.6,23.6,,44,-732,482,55,1018.84,43.4,0
"2019-03-17 00:42:06+00",18.4,20.4,,43.9,-697,447,63,1018.93,43.2,0
"2019-03-17 00:47:06+00",17.4,20.4,,43.7,-620,479,39,1019,43,0
"2019-03-17 00:52:06+00",18.8,21.8,,43.7,-705,472,57,1019.12,43,0
"2019-03-17 00:57:06+00",19.4,21.4,,43.7,-700,519,55,1019.09,42.9,0
"2019-03-17 01:02:06+00",18.0,20.0,,43.6,-652,490,64,1019.05,42.9,0
"2019-03-17 01:07:06+00",17.7,19.7,,43.5,-633,484,41,1019.24,42.8,0
"2019-03-17 01:12:06+00",20.3,23.3,,43.4,-711,578,52,1019.25,42.6,0
"2019-03-17 01:17:06+00",17.5,19.5,,43.3,-634,465,42,1019.4,42.5,0
"2019-03-17 01:22:06+00",17.0,20.0,,43.2,-617,443,44,1019.41,42.4,0
"2019-03-17 01:27:06+00",16.1,20.1,,43.1,-618,382,51,1019.41,42.3,0
"2019-03-17 01:32:06+00",18.8,21.8,,43.1,-680,502,59,1019.53,42.1,0
"2019-03-17 01:37:06+00",21.5,23.5,,43.2,-818,529,58,1019.47,42.3,0
"2019-03-17 01:42:06+00",18.7,22.7,,43.1,-742,373,59,1019.58,42.2,0
"2019-03-17 01:47:06+00",19.4,21.4,,43,-742,458,47,1019.65,42.1,0
"2019-03-17 01:52:06+00",16.5,19.5,,42.8,-639,367,67,1019.6,42,0
"2019-03-17 01:57:06+00",17.4,20.4,,42.7,-701,366,63,1019.62,41.9,0
"2019-03-17 02:02:06+00",19.0,22.0,,42.7,-718,456,64,1019.65,41.8,0
"2019-03-17 02:07:06+00",18.7,21.7,,42.7,-721,438,45,1019.65,41.7,0
"2019-03-17 02:12:06+00",18.4,20.4,,42.5,-695,462,62,1019.71,41.6,0
"2019-03-17 02:17:06+00",17.8,19.8,,42.4,-676,429,65,1019.76,41.4,0
"2019-03-17 02:22:06+00",20.0,23.0,,42.5,-733,526,55,1019.7,41.4,0
"2019-03-17 02:27:06+00",17.9,21.9,,42.3,-664,446,62,1019.74,41.3,0
"2019-03-17 02:32:06+00",17.6,18.6,,42.1,-682,395,39,1019.71,41.1,0
"2019-03-17 02:37:06+00",19.0,22.0,,42.1,-703,473,33,1019.79,41.1,0
"2019-03-17 02:42:06+00",19.4,21.4,,42.1,-716,493,55,1019.85,41.1,0
"2019-03-17 02:47:06+00",18.6,20.6,,42,-679,505,57,1019.86,41,0
"2019-03-17 02:52:06+00",19.8,21.8,,41.9,-712,535,51,1019.89,41,0
"2019-03-17 02:57:06+00",19.3,21.3,,41.8,-684,520,51,1019.9,40.9,0
"2019-03-17 03:02:06+00",17.6,20.6,,41.6,-627,483,61,1019.85,40.7,0
"2019-03-17 03:07:06+00",18.5,21.5,,41.5,-643,525,38,1019.8,40.6,0
"2019-03-17 03:12:06+00",16.3,19.3,,41.2,-545,500,45,1019.88,40.5,0
"2019-03-17 03:17:06+00",20.5,25.5,,41.2,-659,629,52,1019.83,40.3,0
"2019-03-17 03:22:06+00",17.9,20.9,,41,-574,557,50,1019.84,40.2,0
"2019-03-17 03:27:06+00",20.6,23.6,,40.9,-604,691,57,1019.79,40,0
"2019-03-17 03:32:06+00",21.3,24.3,,40.8,-551,777,101,1019.86,39.9,0
"2019-03-17 03:37:06+00",21.1,24.1,,40.9,-616,718,70,1019.91,40.1,0
"2019-03-17 03:42:06+00",22.2,25.2,,40.7,-531,828,72,1019.85,40,0
"2019-03-17 03:47:06+00",25.4,29.4,,40.6,-637,926,50,1019.9,39.8,0
"2019-03-17 03:52:06+00",22.2,26.2,,40.4,-551,810,52,1019.97,39.6,0
"2019-03-17 03:57:06+00",25.3,28.3,,40.5,-642,914,38,1020.02,39.6,0
"2019-03-17 04:02:06+00",25.3,29.3,,40.4,-663,921,73,1020.12,39.5,0
"2019-03-17 04:07:06+00",24.0,28.0,,40.1,-593,884,63,1020.17,39.3,0
"2019-03-17 04:12:06+00",22.8,26.8,,40.1,-633,812,98,1020.02,39.3,0
"2019-03-17 04:17:06+00",28.7,35.7,,40,-855,960,87,1019.84,39.1,0
"2019-03-17 04:22:06+00",32.1,36.1,,39.9,-876,1120,72,1019.77,39.2,0
"2019-03-17 04:27:06+00",31.0,36.0,,39.8,-948,1018,81,1019.88,39.1,0
"2019-03-17 04:32:06+00",27.7,34.7,,39.5,-765,962,76,1019.85,38.8,0
"2019-03-17 04:37:06+00",27.8,31.8,,39.5,-868,891,59,1019.79,38.7,0
"2019-03-17 04:42:06+00",25.8,27.8,,39.3,-834,804,86,1019.72,38.6,0
"2019-03-17 04:47:06+00",20.2,22.2,,39.2,-649,623,64,1019.93,38.4,0
"2019-03-17 04:52:06+00",22.7,26.7,,39.1,-704,750,76,1019.95,38.3,0
"2019-03-17 04:57:06+00",25.7,29.7,,39,-691,913,55,1019.94,38.2,0
"2019-03-17 05:02:06+00",24.1,30.1,,38.8,-725,808,73,1019.98,38,0
"2019-03-17 05:07:06+00",24.3,26.3,,38.8,-696,839,84,1020.03,38,0
"2019-03-17 05:12:06+00",23.9,27.9,,38.5,-652,846,63,1020.1,37.8,0
"2019-03-17 05:17:06+00",18.3,21.3,,38.3,-457,674,51,1020.2,37.5,0
"2019-03-17 05:22:06+00",17.4,20.4,,37.9,-450,619,19,1020.31,37.2,0
"2019-03-17 05:27:06+00",14.9,17.9,,37.7,-336,572,18,1020.39,37,0
"2019-03-17 05:32:06+00",14.6,17.6,,37.5,-384,513,48,1020.5,36.7,0
"2019-03-17 05:37:06+00",14.8,16.8,,37.5,-433,503,51,1020.58,36.6,0
"2019-03-17 05:42:06+00",13.5,15.5,,37.6,-342,492,47,1020.56,36.6,0
"2019-03-17 05:47:06+00",15.3,17.3,,37.5,-404,534,15,1020.7,36.5,0
"2019-03-17 05:52:06+00",14.3,16.3,,37.3,-366,529,51,1020.6,36.4,0
"2019-03-17 05:57:06+00",15.7,19.7,,37.5,-527,468,63,1020.67,36.4,0
"2019-03-17 06:02:06+00",15.4,18.4,,37.4,-386,558,50,1020.65,36.4,0
"2019-03-17 06:07:06+00",17.3,20.3,,37.3,-496,577,34,1020.67,36.4,0
"2019-03-17 06:12:06+00",14.9,16.9,,37.3,-445,489,34,1020.66,36.4,0
"2019-03-17 06:17:06+00",16.0,18.0,,37.2,-508,500,27,1020.65,36.3,0
"2019-03-17 06:22:06+00",13.4,15.4,,37,-421,432,56,1020.68,36.3,0
"2019-03-17 06:27:06+00",14.3,16.3,,37.1,-475,415,61,1020.84,36.3,0
"2019-03-17 06:32:06+00",16.9,17.9,,37,-555,514,34,1020.87,36.2,0
"2019-03-17 06:37:06+00",12.6,14.6,,36.9,-388,400,39,1020.89,36.1,0
"2019-03-17 06:42:06+00",15.9,17.9,,36.9,-513,486,27,1020.88,36.1,0
"2019-03-17 06:47:06+00",13.4,15.4,,36.6,-488,353,64,1020.92,35.9,0
"2019-03-17 06:52:06+00",14.0,16.0,,36.5,-487,401,50,1020.88,35.8,0
"2019-03-17 06:57:06+00",16.2,18.2,,36.6,-558,460,38,1020.81,35.9,0
"2019-03-17 07:02:06+00",16.5,18.5,,36.7,-581,450,32,1020.71,36,0
"2019-03-17 07:07:06+00",15.5,18.5,,36.7,-563,399,38,1020.8,36,0
"2019-03-17 07:12:06+00",15.2,17.2,,36.7,-542,407,28,1020.8,36,0
"2019-03-17 07:17:06+00",14.4,15.4,,36.6,-524,374,36,1020.78,36,0
"2019-03-17 07:22:06+00",13.3,16.3,,36.5,-464,377,44,1020.69,35.9,0
"2019-03-17 07:27:06+00",14.7,17.7,,36.4,-516,382,48,1020.69,35.8,0
"2019-03-17 07:32:06+00",14.5,17.5,,36.2,-489,431,41,1020.83,35.7,0
"2019-03-17 07:37:06+00",14.7,16.7,,36.1,-531,386,35,1020.75,35.5,0
"2019-03-17 07:42:06+00",13.3,15.3,,35.9,-464,369,21,1020.76,35.4,0
"2019-03-17 07:47:06+00",12.0,14.0,,35.8,-434,301,34,1020.7,35.3,0
"2019-03-17 07:52:06+00",13.1,14.1,,35.8,-437,381,36,1020.65,35.2,0
"2019-03-17 07:57:06+00",12.5,14.5,,35.8,-440,336,28,1020.61,35.1,0
"2019-03-17 08:02:06+00",12.3,14.3,,35.8,-436,334,48,1020.68,35.1,0
"2019-03-17 08:07:06+00",13.8,14.8,,36,-538,316,40,1020.63,35.2,0
"2019-03-17 08:12:06+00",13.2,15.2,,36,-490,322,39,1020.65,35.2,0
"2019-03-17 08:17:06+00",11.9,13.9,,36.1,-504,190,23,1020.71,35.3,0
"2019-03-17 08:22:06+00",12.8,14.8,,36.2,-543,208,37,1020.75,35.6,0
"2019-03-17 08:27:06+00",10.1,12.1,,36.2,-432,111,68,1020.73,35.8,0
"2019-03-17 08:32:06+00",11.3,13.3,,36.2,-481,136,55,1020.64,35.8,0
"2019-03-17 08:37:06+00",12.7,13.7,,36.1,-526,208,28,1020.65,35.8,0
"2019-03-17 08:42:06+00",12.7,13.7,,36,-513,227,17,1020.55,35.6,0
"2019-03-17 08:47:06+00",14.0,15.0,,36.1,-571,244,40,1020.61,35.6,0
"2019-03-17 08:52:06+00",13.7,14.7,,36.1,-558,274,32,1020.62,35.7,0
"2019-03-17 08:57:06+00",12.0,14.0,,36,-507,182,44,1020.73,35.5,0
"2019-03-17 09:02:06+00",10.6,12.6,,35.9,-449,170,51,1020.82,35.5,0
"2019-03-17 09:07:06+00",10.2,11.2,,35.8,-427,165,29,1020.85,35.5,0
"2019-03-17 09:12:06+00",12.9,14.9,,35.9,-541,205,37,1020.94,35.6,0
"2019-03-17 09:17:06+00",11.9,13.9,,35.8,-516,158,35,1020.95,35.6,0
"2019-03-17 09:22:06+00",11.7,12.7,,35.8,-495,158,39,1020.88,35.7,0
"2019-03-17 09:27:06+00",11.7,13.7,,35.7,-502,157,59,1020.91,35.7,0
"2019-03-17 09:32:06+00",12.6,14.6,,35.8,-535,199,44,1020.89,35.7,0
"2019-03-17 09:37:06+00",11.1,13.1,,35.6,-475,146,54,1020.94,35.7,0
"2019-03-17 09:42:06+00",11.1,13.1,,35.6,-483,150,41,1021.03,35.6,0
"2019-03-17 09:47:06+00",10.9,11.9,,35.3,-477,83,40,1021.06,35.5,0
"2019-03-17 09:52:06+00",10.6,12.6,,35.4,-450,115,60,1021.09,35.5,0
"2019-03-17 09:57:06+00",12.1,13.1,,35.4,-523,157,45,1021.2,35.3,0
"2019-03-17 10:02:06+00",11.9,13.9,,35.4,-511,147,36,1021.22,35.5,0
"2019-03-17 10:07:06+00",12.5,14.5,,35.3,-528,178,36,1021.25,35.4,0
"2019-03-17 10:12:06+00",12.2,13.2,,35.2,-519,179,42,1021.31,35.4,0
"2019-03-17 10:17:06+00",11.5,12.5,,35.1,-487,171,41,1021.33,35.3,0
"2019-03-17 10:22:06+00",11.5,13.5,,34.9,-486,162,52,1021.47,35.2,0
"2019-03-17 10:27:06+00",11.0,13.0,,34.8,-472,153,41,1021.49,35,0
"2019-03-17 10:32:06+00",10.9,11.9,,34.7,-468,154,46,1021.58,34.9,0
"2019-03-17 10:37:06+00",12.1,14.1,,34.7,-513,178,45,1021.75,34.9,0
"2019-03-17 10:42:06+00",11.7,12.7,,34.8,-501,145,30,1021.69,34.9,0
"2019-03-17 10:47:06+00",11.4,14.4,,34.9,-505,124,63,1021.71,34.9,0
"2019-03-17 10:52:06+00",11.6,12.6,,34.7,-505,74,30,1021.86,34.8,0
"2019-03-17 10:57:06+00",10.8,11.8,,34.2,-473,29,18,1021.95,34.4,0
"2019-03-17 11:02:06+00",11.5,13.5,,34.3,-502,85,27,1022.04,34.2,0
"2019-03-17 11:07:06+00",10.4,11.4,,34.4,-448,106,38,1021.98,34.2,0
"2019-03-17 11:12:06+00",11.7,13.7,,34.6,-509,137,57,1022.11,34.4,0
"2019-03-17 11:17:06+00",10.4,11.4,,34.7,-455,114,54,1022.15,34.6,0
"2019-03-17 11:22:06+00",12.6,13.6,,34.9,-533,163,33,1022.15,34.7,0
"2019-03-17 11:27:06+00",12.8,15.8,,35,-544,175,40,1022.12,34.8,0
"2019-03-17 11:32:06+00",11.6,12.6,,35.1,-482,191,43,1022.15,34.9,0
"2019-03-17 11:37:06+00",14.4,15.4,,35.1,-604,215,38,1022.28,35,16
"2019-03-17 11:42:06+00",12.5,13.5,,35.2,-539,150,25,1022.33,35.2,28.6
"2019-03-17 11:47:06+00",12.4,13.4,,35.3,-544,120,36,1022.41,35.5,38.6
"2019-03-17 11:52:06+00",12.2,14.2,,35.3,-531,105,43,1022.43,35.8,47.2
"2019-03-17 11:57:06+00",11.0,12.0,,35.5,-476,126,74,1022.5,36.2,60.8
"2019-03-17 12:02:06+00",13.0,15.0,,35.4,-546,213,43,1022.35,36.4,72.3
"2019-03-17 12:07:06+00",9.6,10.6,,35.5,-402,154,64,1022.38,36.6,82.7
"2019-03-17 12:12:06+00",13.4,15.4,,35.6,-564,212,50,1022.43,36.7,95.5
"2019-03-17 12:17:06+00",12.8,15.8,,35.2,-550,177,48,1022.5,36.7,105.8
"2019-03-17 12:22:06+00",13.2,14.2,,35.4,-561,194,45,1022.53,36.7,117.8
"2019-03-17 12:27:06+00",13.0,15.0,,35.5,-547,210,53,1022.69,36.9,129.1
"2019-03-17 12:32:06+00",12.7,14.7,,35.5,-497,261,32,1022.65,36.9,139.4
"2019-03-17 12:37:06+00",12.7,13.7,,35.4,-496,271,34,1022.71,36.9,152
"2019-03-17 12:42:06+00",10.8,12.8,,35.6,-463,170,50,1022.62,37.1,161.9
"2019-03-17 12:47:06+00",11.4,12.4,,35.8,-473,193,27,1022.7,37.3,172.9
"2019-03-17 12:52:06+00",11.8,14.8,,36.1,-484,208,46,1022.68,37.6,183.3
"2019-03-17 12:57:06+00",12.0,13.0,,36,-502,167,15,1022.7,37.8,194.3
"2019-03-17 13:02:06+00",10.8,12.8,,36.5,-433,189,20,1022.73,38.2,203.7
"2019-03-17 13:07:06+00",14.3,16.3,,36.8,-569,269,-1,1022.73,38.4,212.4
"2019-03-17 13:12:06+00",11.6,13.6,,36.7,-481,210,40,1022.63,38.5,220.3
"2019-03-17 13:17:06+00",13.9,15.9,,36.9,-584,236,44,1022.73,38.7,229.2
"2019-03-17 13:22:06+00",16.0,19.0,,36.9,-680,255,45,1022.69,38.7,238.9
"2019-03-17 13:27:06+00",13.4,16.4,,37.2,-538,273,36,1022.79,38.8,244.8
"2019-03-17 13:32:06+00",14.8,19.8,,37.3,-555,357,43,1022.75,38.8,252.4
"2019-03-17 13:37:06+00",14.2,17.2,,37.5,-527,347,39,1022.84,39,261.3
"2019-03-17 13:42:06+00",20.2,23.2,,37.5,-713,547,57,1022.76,39.2,259.2
"2019-03-17 13:47:06+00",15.6,17.6,,37.6,-469,505,44,1022.82,39.2,275.7
"2019-03-17 13:52:06+00",14.4,16.4,,37.4,-483,426,30,1022.79,39.2,283.8
"2019-03-17 13:57:06+00",16.8,19.8,,37.6,-644,385,41,1022.68,39.3,275.8
"2019-03-17 14:02:06+00",18.6,21.6,,37.9,-719,425,68,1022.68,39.5,299.4
"2019-03-17 14:07:06+00",15.3,19.3,,38.5,-501,447,53,1022.79,39.9,293.3
"2019-03-17 14:12:06+00",15.7,17.7,,37.9,-417,558,32,1022.78,39.9,320.6
"2019-03-17 14:17:06+00",14.0,16.0,,38,-511,355,55,1022.86,39.8,325.4
"2019-03-17 14:22:06+00",11.9,14.9,,38.1,-315,424,37,1022.81,40.1,338.5
"2019-03-17 14:27:06+00",17.8,19.8,,38.4,-537,582,46,1022.7,40.5,358.9
"2019-03-17 14:32:06+00",11.5,14.5,,38.2,-318,391,34,1022.66,40.4,366.3
"2019-03-17 14:37:06+00",17.8,19.8,,38.5,-613,524,65,1022.46,40.8,327.5
"2019-03-17 14:42:06+00",9.3,11.3,,38.1,-288,287,32,1022.55,40.6,307.5
"2019-03-17 14:47:06+00",13.5,16.5,,38.5,-513,322,22,1022.47,41,412.7
"2019-03-17 14:52:06+00",12.5,14.5,,38.5,-310,450,39,1022.44,41.2,410.4
"2019-03-17 14:57:06+00",16.5,19.5,,39,-390,625,53,1022.42,41.4,452.1
"2019-03-17 15:02:06+00",14.1,18.1,,38.8,-317,532,50,1022.34,41.5,468.9
"2019-03-17 15:07:06+00",12.4,14.4,,38.6,-496,235,16,1022.34,41.5,105.9
"2019-03-17 15:12:06+00",13.5,16.5,,39.1,-572,257,83,1022.29,41.1,139.3
"2019-03-17 15:17:06+00",12.1,16.1,,38.9,-516,161,49,1022.23,41.5,445.4
"2019-03-17 15:22:06+00",9.8,11.8,,38.9,-410,81,25,1022.16,42.2,475
"2019-03-17 15:27:06+00",16.4,19.4,,39.1,-534,492,27,1022.06,41.9,143.4
"2019-03-17 15:32:06+00",12.9,14.9,,39.3,-520,252,55,1022.09,41.6,455
"2019-03-17 15:37:06+00",11.9,14.9,,39.3,-492,241,59,1022.1,42,464.2
"2019-03-17 15:42:06+00",15.1,18.1,,39.5,-579,345,51,1022.02,42.1,462.3
"2019-03-17 15:47:06+00",17.8,18.8,,39.3,-730,325,44,1021.96,42.3,469.6
"2019-03-17 15:52:06+00",12.6,13.6,,39.3,-454,322,11,1022.04,42.3,468.6
"2019-03-17 15:57:06+00",13.3,16.3,,39.8,-593,12,51,1022,42.7,471.7
"2019-03-17 16:02:06+00",13.1,16.1,,39.6,-570,51,10,1021.86,43.4,472.1
"2019-03-17 16:07:06+00",11.4,12.4,,39.4,-491,103,34,1021.94,43.6,473.7
"2019-03-17 16:12:06+00",10.8,16.8,,39.8,-375,307,42,1021.91,43.6,476.1
"2019-03-17 16:17:06+00",15.2,18.2,,39.6,-668,116,45,1021.86,43.6,483.6
"2019-03-17 16:22:06+00",17.0,19.0,,39.9,-707,267,66,1021.91,43.8,490.4
"2019-03-17 16:27:06+00",11.0,14.0,,39.9,-456,168,21,1021.94,43.7,491
"2019-03-17 16:32:06+00",10.9,12.9,,40.1,-438,218,54,1021.91,43.7,452
"2019-03-17 16:37:06+00",13.9,15.9,,40.5,-591,198,67,1021.86,43.9,496
"2019-03-17 16:42:06+00",11.9,13.9,,40.5,-505,156,32,1021.89,44.4,492.4
"2019-03-17 16:47:06+00",16.1,19.1,,40.4,-668,256,60,1021.85,44.6,495.9
"2019-03-17 16:52:06+00",14.0,18.0,,40.5,-564,257,35,1021.83,44.5,501.2
"2019-03-17 16:57:06+00",11.9,13.9,,40.9,-499,163,15,1021.93,44.4,498.6
"2019-03-17 17:02:06+00",12.4,13.4,,40.5,-526,170,39,1021.88,44.3,500.1
"2019-03-17 17:07:06+00",11.1,14.1,,41.1,-428,254,49,1021.81,44.5,498.1
"2019-03-17 17:12:06+00",14.0,17.0,,41,-537,278,55,1021.61,44.5,495.7
"2019-03-17 17:17:06+00",13.7,17.7,,41.4,-589,237,91,1021.59,44.7,495.4
"2019-03-17 17:22:06+00",15.6,17.6,,41.4,-604,373,46,1021.48,44.5,491.4
"2019-03-17 17:27:06+00",13.5,19.5,,41.8,-511,315,56,1021.51,44.7,490.9
"2019-03-17 17:32:06+00",13.0,15.0,,41,-484,337,31,1021.48,44.1,487.9
"2019-03-17 17:37:06+00",13.0,14.0,,41.4,-513,245,29,1021.45,44.3,486.2
"2019-03-17 17:42:06+00",11.3,14.3,,41.8,-466,200,51,1021.33,44.7,482.7
"2019-03-17 17:47:06+00",15.5,19.5,,42,-609,328,55,1021.21,44.9,480.3
"2019-03-17 17:52:06+00",13.8,16.8,,42.5,-528,344,70,1021.16,45.1,477.3
"2019-03-17 17:57:06+00",12.4,14.4,,42.2,-468,283,63,1021.15,45,476.3
"2019-03-17 18:02:06+00",14.3,16.3,,41.9,-590,244,35,1021.08,45.2,485.3
"2019-03-17 18:07:06+00",10.3,12.3,,41.8,-310,335,48,1020.95,45,465
"2019-03-17 18:12:06+00",12.4,14.4,,42.3,-412,356,38,1020.92,45.1,460.3
"2019-03-17 18:17:06+00",10.7,12.7,,42.3,-358,304,22,1020.87,45.2,455.6
"2019-03-17 18:22:06+00",14.6,18.6,,42.4,-548,358,45,1020.74,45.4,454.4
"2019-03-17 18:27:06+00",14.9,17.9,,42.1,-620,255,44,1020.59,45,88.2
"2019-03-17 18:32:06+00",11.3,13.3,,42.2,-453,206,35,1020.61,44.9,442.9
"2019-03-17 18:37:06+00",13.2,14.2,,42.4,-396,426,22,1020.52,45.2,410.9
"2019-03-17 18:42:06+00",14.5,15.5,,42.7,-527,371,40,1020.4,45.4,423.4
"2019-03-17 18:47:06+00",14.6,17.6,,42.8,-513,391,7,1020.29,45.5,424.2
"2019-03-17 18:52:06+00",14.6,18.6,,42.7,-429,493,37,1020.2,45.2,382.8
"2019-03-17 18:57:06+00",10.3,11.3,,42.7,-367,269,13,1020.24,45.2,403.1
"2019-03-17 19:02:06+00",7.6,9.6,,43,-319,84,-7,1020.18,45.7,398.1
"2019-03-17 19:07:06+00",10.7,12.7,,43.1,-467,-26,49,1019.97,46.4,387.8
"2019-03-17 19:12:06+00",15.3,18.3,,43.3,-599,352,46,1019.89,46.7,358.6
"2019-03-17 19:17:06+00",13.4,14.4,,43.2,-484,353,48,1019.93,46.6,369.6
"2019-03-17 19:22:06+00",10.2,14.2,,43.1,-364,254,62,1020,46.4,366.9
"2019-03-17 19:27:06+00",16.0,18.0,,43.1,-548,456,25,1019.89,46,338.1
"2019-03-17 19:32:06+00",17.4,20.4,,43.2,-701,336,38,1019.85,46,343.8
"2019-03-17 19:37:06+00",15.0,18.0,,43.2,-630,235,62,1019.86,46.2,334.7
"2019-03-17 19:42:06+00",11.8,13.8,,43.6,-384,345,67,1019.89,46.3,327.5
"2019-03-17 19:47:06+00",14.2,17.2,,44,-550,319,68,1019.85,46.6,317.9
"2019-03-17 19:52:06+00",14.6,17.6,,43.7,-564,348,50,1019.81,46.6,311.7
"2019-03-17 19:57:06+00",17.4,20.4,,43.8,-648,447,44,1019.69,46.4,303.3
"2019-03-17 20:02:06+00",15.9,17.9,,44,-614,361,56,1019.66,46.6,294.5
"2019-03-17 20:07:06+00",15.6,18.6,,43.6,-621,320,15,1019.66,46.4,285.3
"2019-03-17 20:12:06+00",15.8,19.8,,43.8,-575,414,74,1019.66,46.6,278.4
"2019-03-17 20:17:06+00",18.6,21.6,,43.6,-599,581,42,1019.58,46.2,118.6
"2019-03-17 20:22:06+00",16.1,18.1,,44.3,-652,366,74,1019.6,46.5,264.3
"2019-03-17 20:27:06+00",13.9,14.9,,43.9,-598,193,48,1019.66,46.6,256.1
"2019-03-17 20:32:06+00",19.1,22.1,,43.8,-786,328,36,1019.59,46.6,251.9
"2019-03-17 20:37:06+00",14.6,18.6,,44.2,-578,301,43,1019.69,46.7,245.8
"2019-03-17 20:42:06+00",17.5,20.5,,43.8,-658,417,38,1019.54,46.5,235
"2019-03-17 20:47:06+00",18.6,20.6,,43.9,-788,294,56,1019.33,46.5,230.9
"2019-03-17 20:52:06+00",18.0,20.0,,43.9,-759,307,38,1019.39,46.4,217.9
"2019-03-17 20:57:06+00",13.9,15.9,,43.7,-511,369,43,1019.44,46.3,209.8
"2019-03-17 21:02:06+00",19.2,22.2,,44.2,-737,425,53,1019.44,46.4,202.7
"2019-03-17 21:07:06+00",15.5,19.5,,44,-632,328,79,1019.47,46.2,159.2
"2019-03-17 21:12:06+00",17.7,21.7,,43.9,-718,345,49,1019.45,46.1,184
"2019-03-17 21:17:06+00",17.4,19.4,,44,-674,414,32,1019.44,46.1,174.8
"2019-03-17 21:22:06+00",12.5,14.5,,44.1,-498,236,28,1019.39,46.1,166.2
"2019-03-17 21:27:06+00",16.1,20.1,,44.1,-620,362,48,1019.52,45.9,151.8
"2019-03-17 21:32:06+00",18.4,20.4,,44,-648,522,36,1019.47,45.6,145.4
"2019-03-17 21:37:06+00",16.1,18.1,,43.8,-624,351,68,1019.53,45,8
"2019-03-17 21:42:06+00",16.8,19.8,,44,-612,422,57,1019.72,45.1,127.8
"2019-03-17 21:47:06+00",14.1,16.1,,44,-499,373,28,1019.7,45.2,19.3
"2019-03-17 21:52:06+00",18.5,21.5,,44.1,-711,449,36,1019.77,44.9,101
"2019-03-17 21:57:06+00",17.9,20.9,,43.9,-703,380,51,1019.74,44.9,86.8
"2019-03-17 22:02:06+00",18.3,19.3,,44,-700,424,47,1019.69,44.9,77.1
"2019-03-17 22:07:06+00",15.1,18.1,,44,-570,366,65,1019.69,44.9,67.4
"2019-03-17 22:12:06+00",16.4,19.4,,44.1,-690,259,76,1019.6,45.1,55.8
"2019-03-17 22:17:06+00",20.2,22.2,,43.9,-774,479,60,1019.8,44.8,45.9
"2019-03-17 22:22:06+00",19.8,21.8,,43.8,-748,497,52,1019.88,44.5,33.8
"2019-03-17 22:27:06+00",18.4,20.4,,43.7,-702,427,51,1020,44.3,24.6
"2019-03-17 22:32:06+00",14.5,15.5,,43.7,-523,389,42,1019.92,44.3,15.6
"2019-03-17 22:37:06+00",15.7,16.7,,43.7,-621,335,33,1020.09,44.3,8
"2019-03-17 22:42:06+00",13.3,15.3,,43.6,-546,235,37,1020.07,44.2,0.4
"2019-03-17 22:47:06+00",16.5,19.5,,43.7,-637,387,54,1020.23,44,0
"2019-03-17 22:52:06+00",15.3,17.3,,43.6,-584,369,52,1020.35,43.8,0
"2019-03-17 22:57:06+00",17.0,19.0,,43.5,-672,369,37,1020.39,43.5,0
"2019-03-17 23:02:06+00",16.7,18.7,,43.5,-664,361,46,1020.41,43.3,0
"2019-03-17 23:07:06+00",16.4,18.4,,43.4,-611,422,37,1020.55,43.1,0
"2019-03-17 23:12:06+00",13.8,15.8,,43.4,-543,300,43,1020.55,42.9,0
"2019-03-17 23:17:06+00",11.7,13.7,,43.2,-413,306,37,1020.58,42.8,0
"2019-03-17 23:22:06+00",13.3,16.3,,43.2,-501,339,29,1020.57,42.6,0
"2019-03-17 23:27:06+00",12.6,14.6,,43.1,-484,287,38,1020.59,42.5,0
"2019-03-17 23:32:06+00",11.6,12.6,,43,-461,266,38,1020.58,42.4,0
"2019-03-17 23:37:06+00",10.7,11.7,,42.8,-395,267,38,1020.51,42.2,0
"2019-03-17 23:42:06+00",11.5,12.5,,42.8,-440,273,26,1020.62,42,0
"2019-03-17 23:47:06+00",10.3,11.3,,42.7,-395,241,32,1020.62,41.9,0
"2019-03-17 23:52:06+00",10.9,12.9,,42.7,-421,252,36,1020.62,41.7,0
"2019-03-17 23:57:06+00",10.5,11.5,,42.7,-399,241,28,1020.7,41.6,0
